Riverton, WY

10:51 AM MST on December 16, 2017 (GMT -0700)
Riverton Regional

Weather History for KRIW - July, 2013

Change the Weather History Date:

Monday, July 22, 2013

  Actual Average Record
Temperature  
Mean Temperature 82 °F 73 °F  
Max Temperature 98 °F 89 °F 100 °F (2007)
Min Temperature 66 °F 57 °F 49 °F (2009)
Degree Days  
Heating Degree Days 0 0  
Month to date heating degree days 0 8  
Since 1 June heating degree days 52 127  
Since 1 July heating degree days 0 8  
Cooling Degree Days 17 8  
Month to date cooling degree days 248 146  
Year to date cooling degree days 398 221  
Since 1 June cooling degree days 385 212  
Growing Degree Days 32 (Base 50)    
Moisture  
Dew Point 25 °F    
Average Humidity 18    
Maximum Humidity 32    
Minimum Humidity 4    
Precipitation  
Precipitation 0.00 in 0.03 in 0.36 in (2004)
Month to date precipitation 0.28 0.69  
Year to date precipitation 3.77 6.05  
Snow  
Snow 0.00 in - - ()
Month to date snowfall 0.0  
Since 1 June snowfall 0.0  
Since 1 July snowfall 0.0  
Snow Depth 0.00 in    
Sea Level Pressure  
Sea Level Pressure 29.78 in    
Wind  
Wind Speed 10 mph (NW)    
Max Wind Speed 29 mph    
Max Gust Speed 36 mph    
Visibility 10 miles    
Events      
T = Trace of Precipitation, MM = Missing Value Source: NWS Daily Summary

Daily Weather History Graph

Daily Weather History Graph

Search for Another Location

Airport or City:

Trip Planner

Search our weather history database for the weather conditions in past years. The results will help you decide how hot, cold, wet, or windy it might be!

Date:

Astronomy

Jul. 22, 2013 Rise Set
Actual Time 5:54 AM MDT 8:45 PM MDT
Civil Twilight 5:21 AM MDT 9:18 PM MDT
Nautical Twilight 4:39 AM MDT 10:00 PM MDT
Astronomical Twilight 3:49 AM MDT 10:49 PM MDT
Moon 8:30 PM MDT (7/22) 5:56 AM MDT (7/22)
Length of Visible Light 15h 57m
Length of Day
14h 50m
Full, 100% of the Moon is Illuminated
Jul 22
Full
Jul 22
Full
Jul 29
Last Quarter
Aug 6
New
Aug 14
First Quarter

Hourly Weather History & Observations

Time (MDT) Temp. Dew Point Humidity Pressure Visibility Wind Dir Wind Speed Gust Speed Precip Events Conditions
12:53 AM 73.9 °F 27.0 °F 18% 29.80 in 10.0 mi Calm Calm - N/A   Clear
1:53 AM 73.9 °F 30.9 °F 21% 29.79 in 10.0 mi South 4.6 mph - N/A   Clear
2:53 AM 72.0 °F 34.0 °F 25% 29.80 in 10.0 mi SSE 5.8 mph - N/A   Clear
3:53 AM 70.0 °F 33.1 °F 26% 29.80 in 10.0 mi SSE 6.9 mph - N/A   Clear
4:53 AM 68.0 °F 33.1 °F 27% 29.80 in 10.0 mi SSE 4.6 mph - N/A   Clear
5:53 AM 66.9 °F 35.1 °F 31% 29.80 in 10.0 mi SE 8.1 mph - N/A   Clear
6:53 AM 68.0 °F 36.0 °F 31% 29.82 in 10.0 mi Calm Calm - N/A   Clear
7:53 AM 71.1 °F 39.0 °F 31% 29.82 in 10.0 mi North 6.9 mph - N/A   Clear
8:53 AM 73.0 °F 39.0 °F 29% 29.83 in 10.0 mi East 3.5 mph - N/A   Clear
9:53 AM 77.0 °F 41.0 °F 28% 29.82 in 10.0 mi Variable 3.5 mph - N/A   Clear
10:53 AM 82.9 °F 37.9 °F 20% 29.78 in 10.0 mi Calm Calm - N/A   Clear
11:53 AM 86.0 °F 37.9 °F 18% 29.79 in 10.0 mi Variable 4.6 mph - N/A   Clear
12:53 PM 91.0 °F 26.1 °F 10% 29.75 in 10.0 mi NE 3.5 mph - N/A   Clear
1:53 PM 93.9 °F 28.9 °F 10% 29.73 in 10.0 mi NNW 10.4 mph 20.7 mph N/A   Clear
2:53 PM 95.0 °F 25.0 °F 8% 29.72 in 10.0 mi West 8.1 mph - N/A   Clear
3:53 PM 97.0 °F 9.0 °F 4% 29.70 in 10.0 mi WNW 15.0 mph 19.6 mph N/A   Clear
4:07 PM 96.8 °F 6.8 °F 4% 29.96 in 10.0 mi NW 20.7 mph 31.1 mph N/A   Clear
4:53 PM 97.0 °F 10.0 °F 4% 29.71 in 10.0 mi NW 16.1 mph 27.6 mph N/A   Clear
5:53 PM 93.9 °F 8.1 °F 4% 29.71 in 10.0 mi NW 28.8 mph 34.5 mph N/A   Clear
6:53 PM 91.9 °F 10.0 °F 5% 29.72 in 10.0 mi NW 24.2 mph 33.4 mph N/A   Clear
7:53 PM 88.0 °F 15.1 °F 7% 29.73 in 10.0 mi NW 16.1 mph - N/A   Clear
8:53 PM 82.0 °F 18.0 °F 9% 29.75 in 10.0 mi WNW 16.1 mph - N/A   Clear
9:53 PM 77.0 °F 18.0 °F 11% 29.78 in 10.0 mi NW 17.3 mph - N/A   Clear
10:53 PM 73.9 °F 12.0 °F 9% 29.81 in 10.0 mi NNW 16.1 mph - N/A   Clear
11:53 PM 71.1 °F 19.9 °F 14% 29.82 in 10.0 mi North 8.1 mph - N/A   Clear